Regional Weather Roundup
Issued by NWS

Home | Current Version | Previous Version | Graphics & Text | Print | Product List | Glossary On
Versions: 1 2 3 4 5 6 7 8 9 10 11 12 13 14 15 16 17 18 19 20 21 22 23 24 25 26 27 28 29 30 31 32 33 34 35 36 37 38 39 40 41 42 43 44 45 46 47 48 49 50
000
ASUS43 KLOT 181406
RWRIL

ILLINOIS REGIONAL WEATHER ROUNDUP
NATIONAL WEATHER SERVICE CHICAGO/ROMEOVILLE IL
800 AM CST THU DEC 18 2014

NOTE: "FAIR" INDICATES FEW OR NO CLOUDS BELOW 12,000 FEET WITH NO
SIGNIFICANT WEATHER AND/OR OBSTRUCTIONS TO VISIBILITY.

* THESE STATIONS ARE NOT UNDER NWS QUALITY CONTROL. THEY ALSO MAY NOT
  REPORT WEATHER SUCH AS PRECIPITATION OR FOG.

ILZ001-002-007-009-015-016-024-181500-
NORTHWEST ILLINOIS

CITY           SKY/WX    TMP DP  RH WIND       PRES   REMARKS
MOLINE         CLOUDY    22  17  81 CALM      30.31S
STERLING*      MOCLDY    19  14  79 W3        30.31R
SAVANNA*       PTCLDY    17  14  90 CALM      30.31S
$$

ILZ003-004-008-010-011-017-018-181500-
NORTH CENTRAL ILLINOIS

CITY           SKY/WX    TMP DP  RH WIND       PRES   REMARKS
ROCKFORD       MOCLDY    19  14  81 W3        30.32R
FREEPORT*      PTCLDY    14  11  90 CALM      30.32R
ROCHELLE*      CLOUDY    21  16  80 CALM      30.30R
DE KALB*       CLOUDY    20  14  79 CALM      30.29R
PERU*          PTCLDY    21  19  92 W3        30.32R
$$

ILZ005-006-012>014-019>023-181500-
NORTHEAST ILLINOIS

CITY           SKY/WX    TMP DP  RH WIND       PRES   REMARKS
CHICAGO-OHARE  MOCLDY    20  15  81 W6        30.29R WCI  12
CHICAGO-MIDWAY CLOUDY    25  16  68 NW5       30.29R WCI  19
AURORA         CLOUDY    23  15  71 CALM      30.30R
LANSING*       CLOUDY    25  17  74 W5        30.29S WCI  19
JOLIET*        CLOUDY    23  16  75 CALM      30.31R
WAUKEGAN       MOCLDY    19  14  81 SW3       30.27R
DUPAGE AIRPORT PTCLDY    21  15  78 NW5       30.28R WCI  15
KANKAKEE*      CLOUDY    24  18  79 CALM      30.31S
WHEELING       CLEAR     20  14  77 W5        30.31R WCI  13
MORRIS*        PTCLDY    22  20  91 CALM      30.30R
ROMEOVILLE*    CLOUDY    24  17  74 CALM      30.29S
NORTHERLY ISL    N/A     24  16  71 W5          N/A  WCI  18
$$

LMZ740>746-181500-
SOUTHERN LAKE MICHIGAN

STATION/POSITION SKY/WX   TEMP    WIND        PRES    VSBY  WAVE
                          AIR SEA DIR/SP/G                  HT/PER
                          (F)     (DEG/KT/KT) (MB)    (MI)  (FT/S)
WAUKEGAN HARBOR            20     260/  8/ 12   N/A
HARRISON CRIB              23     280/  9/ 11   N/A
BURNHAM HARBOR             24     280/  4/  7   N/A
CALUMET HARBOR             25     210/  4/  7 1024.4S
$$

ILZ025>027-034>036-040-047-049-050-058-095>099-181500-
WEST-CENTRAL ILLINOIS

CITY           SKY/WX    TMP DP  RH WIND       PRES   REMARKS
QUINCY         LGT SNOW  26  21  81 NE3       30.29S VSB 3/4
GALESBURG*     CLOUDY    20  19  94 CALM      30.30S
MACOMB*        CLOUDY    23  20  90 CALM      30.32S
JACKSONVILLE*  SNOW      27  25  91 CALM      30.31S VSB 1/4
PITTSFIELD*    LGT SNOW  27  25  93 CALM      30.30F
$$

ILZ028>032-037-038-041>044-048-051>054-059>061-181500-
CENTRAL ILLINOIS

CITY           SKY/WX    TMP DP  RH WIND       PRES   REMARKS
PONTIAC        PTCLDY    20  18  93 SW3       30.32S
BLOOMINGTON    MOCLDY    23  20  89 CALM      30.30S
DECATUR        CLOUDY    25  22  88 CALM      30.31S
PEORIA         CLOUDY    22  17  81 NE3       30.31S
LACON*         PTCLDY    17  14  90 CALM      30.32R
LINCOLN*       CLOUDY    25  22  88 CALM      30.32S
SPRINGFIELD    CLOUDY    26  22  84 W3        30.32R
TAYLORVILLE    CLOUDY    27  21  80 CALM      30.31S
$$

ILZ033-039-045-046-055>057-062-063-181500-
EAST-CENTRAL ILLINOIS

CITY           SKY/WX    TMP DP  RH WIND       PRES   REMARKS
CHAMPAIGN      CLOUDY    25  21  85 W6        30.31R WCI  18
DANVILLE*      CLOUDY    24  18  77 CALM      30.28R
RANTOUL*       CLOUDY    26  21  81 CALM      30.31R
MATTOON        CLOUDY    25  18  74 CALM      30.30R
PARIS*         CLOUDY    26  21  82 CALM      30.32R
$$

ILZ079-100>102-181500-
SOUTHWEST ILLINOIS

CITY           SKY/WX    TMP DP  RH WIND       PRES   REMARKS
ALTON          CLOUDY    28  23  80 NE7       30.31R WCI  21
BELLEVILLE     PTCLDY    30  27  86 NE2       30.31R
CAHOKIA*       LGT SNOW  30  26  85 NE3       30.31R FOG
SPARTA*        LGT SNOW  30  27  88 CALM      30.32R
$$

ILZ064>066-069>071-074>076-080>082-084>086-088>090-092>094-181500-
SOUTH-CENTRAL ILLINOIS

CITY           SKY/WX    TMP DP  RH WIND       PRES   REMARKS
CARBONDALE     CLOUDY    31  28  89 N5        30.30S FOG     WCI  26
CAIRO*         CLOUDY    36  35  97 NE6       30.28R WCI  31
EFFINGHAM*     CLOUDY    27  21  78 CALM      30.32F
MARION         LGT SNOW  32  30  93 N7        30.29S WCI  26
MT. VERNON     CLOUDY    28  21  74 NE3       30.31R
CENTRALIA*     CLOUDY    28  24  84 NE3       30.30S
SALEM*         CLOUDY    29  25  84 NE5       30.30S FOG     WCI  24
METROPOLIS*    CLOUDY    33  33 100 CALM      30.28R FOG
$$

ILZ067-068-072-073-078-083-087-091-181500-
SOUTHEAST ILLINOIS

CITY           SKY/WX    TMP DP  RH WIND       PRES   REMARKS
LAWRENCEVILLE  CLOUDY    27  22  81 NE5       30.31F HAZE    WCI  22
FLORA*         MOCLDY    27  23  84 NE3       30.32R
FAIRFIELD*     CLOUDY    28  24  86 NE3       30.30R FOG
HARRISBURG*    CLOUDY    31  28  88 N6        30.31S WCI  25
ROBINSON*      CLOUDY    27  22  81 E5        30.33R WCI  22
CARMI*         CLOUDY    31  28  90 CALM      30.31R
$$

ABBREVIATIONS USED IN REMARKS
   TC - TEMPERATURE IN CELSIUS
  WCI - WIND CHILL INDEX
   HX - HEAT INDEX
  VSB - VISIBILITY
$$




USA.gov is the U.S. government's official web portal to all federal, state and local government web resources and services.